Weather History for Naples, FL

Change the Weather History Date:

Tuesday, January 10, 2012

  Actual Average Record
Temperature  
Mean Temperature 69 °F 64 °F  
Max Temperature 80 °F 75 °F 86 °F (1974)
Min Temperature 57 °F 54 °F 32 °F (1970)
Degree Days  
Heating Degree Days 0 4  
Month to date heating degree days 51 34  
Since 1 July heating degree days 76 112  
Cooling Degree Days 4 3  
Month to date cooling degree days 11 30  
Year to date cooling degree days 11 30  
Growing Degree Days 20 (Base 50)    
Moisture  
Dew Point 58 °F    
Average Humidity 66    
Maximum Humidity 90    
Minimum Humidity 42    
Precipitation  
Precipitation 0.00 in 0.04 in 0.65 in (1997)
Month to date precipitation 0.00 0.54  
Year to date precipitation 0.00 0.54  
Snow  
Snow 0.00 in - - ()
Month to date snowfall 0.0  
Since 1 July snowfall 0.0  
Snow Depth 0.00 in    
Sea Level Pressure  
Sea Level Pressure 30.04 in    
Wind  
Wind Speed 5 mph (SE)    
Max Wind Speed 16 mph    
Max Gust Speed 20 mph    
Visibility 9 miles    
Events      
T = Trace of Precipitation, MM = Missing Value Source: NWS Daily Summary

Daily Weather History Graph

Daily Weather History Graph

Search for Another Location

Airport:

Trip Planner

Search our weather history database for the weather conditions in past years. The results will help you decide how hot, cold, wet, or windy it might be!

Date:

Astronomy

Jan. 10, 2012 Rise Set
Actual Time 7:16 AM EST 5:53 PM EST
Civil Twilight 6:51 AM EST 6:18 PM EST
Nautical Twilight 6:22 AM EST 6:46 PM EST
Astronomical Twilight 5:54 AM EST 7:14 PM EST
Moon 7:30 PM EST (1/10) 8:03 AM EST (1/10)
Length of Visible Light 11h 26m
Length of Day
10h 36m
Full, 98% of the Moon is Illuminated
Jan 10
Full
Jan 16
Last Quarter
Jan 23
New
Jan 30
First Quarter
Feb 7
Full

Hourly Weather History & Observations

Time (EST) Temp. Heat Index Dew Point Humidity Pressure Visibility Wind Dir Wind Speed Gust Speed Precip Events Conditions
12:53 AM 61.0 °F - 57.9 °F 90% 30.09 in 7.0 mi Calm Calm - N/A   Clear
1:53 AM 60.1 °F - 57.0 °F 90% 30.09 in 7.0 mi Calm Calm - N/A   Clear
2:53 AM 60.1 °F - 57.0 °F 90% 30.08 in 6.0 mi Calm Calm - N/A   Clear
3:53 AM 59.0 °F - 55.9 °F 90% 30.07 in 6.0 mi Calm Calm - N/A   Clear
4:53 AM 59.0 °F - 55.9 °F 90% 30.06 in 6.0 mi Calm Calm - N/A   Clear
5:53 AM 59.0 °F - 55.9 °F 90% 30.08 in 8.0 mi Calm Calm - N/A   Clear
6:53 AM 59.0 °F - 55.9 °F 90% 30.09 in 8.0 mi ENE 3.5 mph - N/A   Clear
7:53 AM 59.0 °F - 55.9 °F 90% 30.09 in 7.0 mi ENE 3.5 mph - N/A   Clear
8:53 AM 66.2 °F - 59.0 °F 78% 30.10 in 10.0 mi East 8.1 mph - N/A   Clear
9:53 AM 71.1 °F - 60.1 °F 68% 30.11 in 10.0 mi East 8.1 mph - N/A   Clear
10:53 AM 75.0 °F - 59.0 °F 57% 30.09 in 10.0 mi East 8.1 mph - N/A   Clear
11:53 AM 75.0 °F - 57.9 °F 55% 30.05 in 10.0 mi ESE 9.2 mph - N/A   Scattered Clouds
12:53 PM 78.8 °F - 57.2 °F 47% 30.02 in 10.0 mi South 11.5 mph - N/A   Scattered Clouds
1:53 PM 80.1 °F 80.2 °F 55.9 °F 43% 30.00 in 10.0 mi SSE 11.5 mph - N/A   Scattered Clouds
2:53 PM 79.0 °F - 54.0 °F 42% 29.98 in 10.0 mi SSW 13.8 mph - N/A   Scattered Clouds
3:53 PM 77.0 °F - 57.0 °F 50% 29.96 in 10.0 mi South 13.8 mph - N/A   Scattered Clouds
4:53 PM 75.9 °F - 57.0 °F 52% 29.97 in 10.0 mi South 8.1 mph - N/A   Scattered Clouds
5:53 PM 71.1 °F - 57.9 °F 63% 29.98 in 10.0 mi SSW 3.5 mph - N/A   Partly Cloudy
6:53 PM 69.1 °F - 59.0 °F 70% 29.99 in 10.0 mi South 5.8 mph - N/A   Clear
7:53 PM 68.0 °F - 57.2 °F 68% 30.00 in 10.0 mi Calm Calm - N/A   Partly Cloudy
8:53 PM 66.9 °F - 60.1 °F 79% 30.01 in 10.0 mi SE 3.5 mph - N/A   Mostly Cloudy
9:53 PM 66.0 °F - 61.0 °F 84% 30.01 in 10.0 mi ESE 4.6 mph - N/A   Partly Cloudy
10:53 PM 66.0 °F - 60.1 °F 81% 30.00 in 10.0 mi ESE 5.8 mph - N/A   Clear
11:53 PM 64.0 °F - 60.1 °F 87% 29.99 in 10.0 mi ESE 5.8 mph - N/A   Clear